Regional Weather Roundup
Issued by NWS Kansas City/Pleasant Hill, MO

Home | Current Version | Previous Version | Graphics & Text | Print | Product List | Glossary Off
Versions: 1 2 3 4 5 6 7 8 9 10 11 12 13 14 15 16 17 18 19 20 21 22 23 24 25 26 27 28 29 30 31 32 33 34 35 36 37 38 39 40 41 42 43 44 45 46 47 48 49 50

000
ASUS43 KEAX 012310
RWREAX

WEATHER ROUNDUP FOR EASTERN KANSAS AND NORTHWEST MISSOURI
NATIONAL WEATHER SERVICE KANSAS CITY/PLEASANT HILL MO
600 PM CDT SAT AUG 01 2015

KSZ040-057-103>105-MOZ028-029-037-043-020000-
...KANSAS CITY METROPOLITAN AREA...

CITY           SKY/WX    TMP DP  RH WIND       PRES   REMARKS
K.C. INTL      PTSUNNY   88  72  58 SW6       29.96F HX  94
K.C. DOWNTOWN  SUNNY     91  67  44 SW5       29.95S HX  94
LEES SUMMIT    MOSUNNY   85  69  58 SE8       29.99S
OLATHE - IXD   SUNNY     91  65  41 VRB7      29.98F HX  93
OLATHE - OJC   SUNNY     90  65  43 W3        29.97F HX  92
LAWRENCE       SUNNY     91  68  46 SW6       29.95F HX  95

$$

MOZ001>008-011>017-020>025-030>033-038>040-044>046-053-054-020000-
...NORTHERN AND CENTRAL MISSOURI...

CITY           SKY/WX    TMP DP  RH WIND       PRES   REMARKS
ST. JOSEPH     PTSUNNY   88  76  67 SW3       29.94F HX  99
MOSBY            N/A     90  66  45 S5        29.96S HX  92
WARRENSBURG    MOSUNNY   79  64  61 NE17G25   30.01R
WHITEMAN AFB   MOSUNNY   76  62  61 NE13G31   30.02R
CLINTON        MOSUNNY   75  72  88 SE3       29.99F
SEDALIA        MOSUNNY   79  68  69 N14       30.05R
WARSAW         NOT AVBL
CHILLICOTHE      N/A     77  68  73 SE6       29.96S
KIRKSVILLE     MOSUNNY   87  71  58 S3        29.97F HX  93

$$

MOZ041-047>049-056>058-063>065-088>090-097-020000-
...EASTERN AND SOUTHERN MISSOURI...

CITY           SKY/WX    TMP DP  RH WIND       PRES   REMARKS
ST. LOUIS INTL PTSUNNY   90  65  43 W3        29.98F HX  92
SPIRIT OF STL  PTSUNNY   86  74  67 CALM      29.96F HX  94
COLUMBIA       PTSUNNY   77  68  73 W6        30.00F
JEFFERSON CITY PTSUNNY   82  65  56 NW6       29.98F
ROLLA          PTSUNNY   83  69  62 W6        30.00R
OSAGE BEACH    PTSUNNY   79  63  57 S3        30.00F
SPRINGFIELD    SUNNY     89  60  37 SW6       30.00F
BRANSON        MOSUNNY   90  64  43 CALM      30.03F HX  91
JOPLIN         SUNNY     91  63  39 S8        29.98F HX  92
WEST PLAINS    SUNNY     89  63  41 W6        30.02F HX  90

$$

IAZ060-094-KSZ022-034>040-054-083-096-NEZ052-066-093-020000-
...KANSAS...SOUTHEAST NEBRASKA AND IOWA...

CITY           SKY/WX    TMP DP  RH WIND       PRES   REMARKS
TOPEKA         SUNNY     92  66  42 SW6       29.95F HX  94
MANHATTAN      SUNNY     93  65  39 S7        29.95F HX  95
EMPORIA        MOSUNNY   89  66  46 E5        29.96F HX  91
CHANUTE        MOSUNNY   91  69  48 S10       29.97F HX  96
WICHITA        MOSUNNY   90  69  50 S7        29.97F HX  94
OMAHA          PTSUNNY   85  67  54 SE9       29.92F
LINCOLN        MOSUNNY   87  59  38 S8        29.93F
FALLS CITY     MOSUNNY   88  76  67 N3        29.94F HX  99
LAMONI         MOSUNNY   87  72  60 SW5       29.94F HX  93
DES MOINES     PTSUNNY   87  69  54 W7        29.92S HX  91

$$




USA.gov is the U.S. government's official web portal to all federal, state and local government web resources and services.